Regional Weather Roundup
Issued by NWS

Home | Current Version | Previous Version | Graphics & Text | Print | Product List | Glossary On
Versions: 1 2 3 4 5 6 7 8 9 10 11 12 13 14 15 16 17 18 19 20 21 22 23 24 25 26 27 28 29 30 31 32 33 34 35 36 37 38 39 40 41 42 43 44 45 46 47 48 49 50
000
ASUS45 KTFX 010819
RWRMT
MONTANA HOURLY WEATHER ROUNDUP
NATIONAL WEATHER SERVICE GREAT FALLS MT
119 AM MST SUN FEB 1 2015

NOTE: "FAIR" INDICATES FEW OR NO CLOUDS BELOW 12000 FEET WITH NO
SIGNIFICANT WEATHER AND/OR OBSTRUCTIONS TO VISIBILITY.

* THESE STATIONS ARE NOT UNDER NWS QUALITY CONTROL. THEY DO NOT
   REPORT WEATHER SUCH AS PRECIPITATION OR FOG.

MTZ001>007-043-010900-
WEST OF THE DIVIDE
CITY           SKY/WX    TMP DP  RH WIND       PRES   REMARKS
KALISPELL      CLOUDY    25  16  69 NE12      30.26F WCI  14
MISSOULA       MOCLDY    30  21  69 CALM      30.25S
BUTTE          FAIR      16  12  84 E3        30.17R
MULLAN PASS    MOCLDY    21  18  88 SE8       30.11F WCI  11
* ANACONDA     PTCLDY    18  14  84 N/A        N/A
* ESSEX        N/A       15   6  67 SE4G9      N/A
* EUREKA APT   PTCLDY    28  25  89 CALM      30.28F
* HAMILTON APT PTCLDY    25  19  78 SE2       30.23R
* LIBBY APT    PTCLDY    27  25  92 CALM      30.27F
* LINCOLN      N/A        6   2  83 N/A        N/A
* LOOKOUT PASS N/A       23  22  96 N/A        N/A
* POLSON       N/A       24  23  96 N/A        N/A
* RONAN APT    PTCLDY    27  27 100 N/A        N/A
* SEELEY LAKE  N/A       19  14  81 N/A        N/A
* THOMP F APT  PTCLDY    13  10  88 NE2        N/A
* YAAK HILL    N/A       31  25  78 N/A        N/A
$$

MTZ008-052>055-010900-
SOUTHWEST MONTANA
CITY           SKY/WX    TMP DP  RH WIND       PRES   REMARKS
BOZEMAN        CLOUDY    18  12  77 SW3       30.25R
DILLON         CLEAR     12   9  88 NE7       30.19R WCI   1
* W YELLOWSTON PTCLDY    13  10  88 E1         N/A
* THREE FORKS  MOCLDY    18  18 100 N/A        N/A
* BOULDER HILL N/A        8   4  84 N6         N/A   WCI  -2
* MONIDA PASS  N/A        9   8  96 SE9        N/A   WCI  -4
* RAYNOLDS PAS N/A       14 -28  13 N/A        N/A
* WHITEHALL    N/A       15   9  77 NW2        N/A
* WISE RIVER   N/A       15  10  80 W1         N/A
$$

MTZ009>010-012-014-046-048-049-054-010900-
EAST SLOPES AND CENTRAL MONTANA
CITY           SKY/WX    TMP DP  RH WIND       PRES   REMARKS
CUT BANK       CLEAR      0  -2  91 CALM      30.30F
GREAT FALLS    CLOUDY     0  -2  91 E3        30.34F
HELENA         CLOUDY    18   9  68 W5        30.31R WCI  11
MALMSTROM AFB  CLOUDY    -8  -9  95 S7        30.38S WCI -23
* CONRAD       PTCLDY    -2  -9  72 CALM       N/A
* DEARBORN     N/A       10   5  80 N3         N/A
* EAST GLACIER N/A        1  -2  87 NW2        N/A
* MONARCH      N/A        2  -3  79 W1         N/A
* PENDROY      N/A        1  -1  91 SW5        N/A   WCI  -9
* ROGERS PASS  N/A        6   2  83 N/A        N/A
* SWEET GRASS  N/A       -1  -5  83 NW2        N/A
* WHITE SULPH  N/A       11   3  70 NW4        N/A
$$

MTZ011-013-016-021-035-040-045-047-050-051-010900-
NORTH CENTRAL MONTANA
CITY           SKY/WX    TMP DP  RH WIND       PRES   REMARKS
HAVRE          MOCLDY    -6  -8  91 SE3       30.43F
LEWISTOWN      CLOUDY     7   3  83 W5        30.31R WCI  -2
* N BAR RANCH  CLOUDY     7   0  73 NW12      30.26S WCI  -9
* CHINOOK      PTCLDY     0  -4  83 CALM      30.47S
* CHESTER      N/A       -5 -10  79 N/A        N/A
* DENTON       N/A        6   3  87 SW4        N/A
* GEYSER       N/A        3   0  87 W12        N/A   WCI -14
* JUDITH GAP   N/A        6   4  91 VRB15G20    N/A   WCI -12
* LOMA         N/A       -2  -6  83 W4         N/A
$$

MTZ017>020-022>027-061-062-010900-
NORTHEAST MONTANA
CITY           SKY/WX    TMP DP  RH WIND       PRES   REMARKS
GLASGOW        LGT SNOW   1  -2  87 NE5       30.47R VSB 3    WCI  -9
GLENDIVE       MOCLDY     0  -4  83 N9        30.41S WCI -15
JORDAN         PTCLDY     3   0  87 CALM      30.42R
SIDNEY         CLOUDY     0  -8  68 N7        30.51S WCI -13
WOLF POINT     CLOUDY     3  -6  66 E3        30.51S
* BEAVER HILL  N/A       -2  -6  83 VRB8       N/A   WCI -17
* CIRCLE       N/A        1  -2  87 N3G9       N/A
* LINDSAY DVD  N/A       -2  -5  87 N6         N/A   WCI -14
* NAVAJO       N/A       -6 -11  78 N4         N/A
* PLENTYWOOD A PTCLDY    -4  -9  79 N3        30.46F
* POPLAR APT   PTCLDY     0  -8  68 N/A       30.50S
* SACO         N/A        2  -2  83 N4         N/A
$$

MTZ028>042-056>058-010900-
SOUTHCENTRAL AND SOUTHEAST MONTANA
CITY           SKY/WX    TMP DP  RH WIND       PRES   REMARKS
BAKER          LGT SNOW   1  -4  79 NE8       30.33R VSB 2 1/2 WCI -13
BILLINGS       LGT SNOW  10   7  88 NE8       30.32R VSB 3    WCI  -2
LIVINGSTON     CLOUDY    18   9  68 W6        30.22R WCI  10
MILES CITY     CLOUDY     1  -2  87 N8        30.40R WCI -13
* BIG TIMBER A CLOUDY    14  10  84 E5        30.25R VSB 2    WCI   6
* FORSYTH APT  CLEAR      5   0  80 N6        30.40R WCI  -6
* LAUREL APT   MOCLDY    12   5  73 NE7        N/A   WCI   1
* ROUNDUP APT  MOCLDY     9   0  66 NE6        N/A   WCI  -1
* ALZADA       N/A        4   1  87 NW6        N/A   WCI  -7
* HYSHAM       N/A        4   1  87 NE1        N/A
* LAME DEER    N/A        2  -2  83 NW8        N/A   WCI -12
* REED POINT   N/A       15  10  80 NE4        N/A
* ROSCOE HILL  N/A       10   6  84 N3         N/A
$$

REGIONAL REPORTS...DAKOTAS
CITY           SKY/WX    TMP DP  RH WIND       PRES   REMARKS
WILLISTON      CLOUDY    -4 -11  71 NE7       30.50R WCI -18
DICKINSON      LGT SNOW  -2  -8  75 N10       30.35R VSB 2 1/2 WCI -18
BEACH          LGT SNOW   0  -2  91 N8        30.38R VSB 3    WCI -14
CROSBY         CLEAR     -4 -13  65 NE3       30.52S
TIOGA          CLEAR     -9 -13  82 CALM      30.49R
WATFORD CITY   CLEAR     -4 -11  71 N6        30.46R WCI -17
BISMARCK       LGT SNOW  -6 -13  71 N10       30.46R WCI -23
GRAND FORKS    PTCLDY    -9 -18  64 N18       30.56R WCI -33
FARGO          MOCLDY    -2 -11  65 N20       30.45R WCI -25
BUFFALO SD     PTCLDY     1  -4  79 N10       30.21R WCI -15
RAPID CITY     LGT SNOW   7   3  83 N15       30.21R WCI -10
$$

REGIONAL REPORTS...WYOMING/IDAHO/WASHINGTON
CITY           SKY/WX    TMP DP  RH WIND       PRES   REMARKS
GILLETTE       CLOUDY    10   7  88 N17       30.16S WCI  -8
SHERIDAN       CLOUDY    12   5  73 NW15      30.26R WCI  -4
CODY           CLOUDY    12  12 100 N15       30.16R WCI  -4
YELLOWSTONE LA PTCLDY     3   0  87 CALM      30.10R
SALMON         CLOUDY    23  19  85 CALM      30.25R
MULLAN PASS    MOCLDY    21  18  88 SE8       30.11S WCI  11
SAND POINT     CLOUDY    32  32 100 NE3       30.28F
SPOKANE        CLOUDY    28  28 100 NE5       30.24F WCI  22
$$

REGIONAL REPORTS...ALBERTA
CITY           SKY/WX    TMP DP  RH WIND       PRES   REMARKS
CALGARY        N/A        3   0  87 SW7       30.23F WCI  -9
LETHBRIDGE     CLEAR     -8 -11  86 S8        30.33F WCI -24
MEDICINE HAT   CLEAR     -9 -13  82 S5        30.44S WCI -21
EDMONTON       N/A       -8 -11  86 S6        30.31F WCI -21
WATERTON GATE  N/A       -8 -13  78 NE1        N/A
CARDSTON       N/A       -2  -4  91 S5         N/A   WCI -13
MILK RIVER     N/A       -8 -11  86 SW3        N/A
$$

REGIONAL REPORTS...SASKATCHEWAN
CITY           SKY/WX    TMP DP  RH WIND       PRES   REMARKS
SWIFT CURRENT  CLEAR     -8 -13  78 S6        30.38F WCI -21
REGINA         MOCLDY    -9 -13  82 NW3       30.52S
VAL MARIE      N/A       -9 -13  82 SE1        N/A
ASSINIBOIA     N/A       -9 -13  82 W3         N/A
CORONACH       N/A       -6 -11  78 W2         N/A

$$




USA.gov is the U.S. government's official web portal to all federal, state and local government web resources and services.